Tracking 30995 objects as of 5-Jul-2025
HD Live streaming from Space Station
objects crossing your sky now

SL-12 R/B(2)

Track SL-12 R/B(2) now!


NORAD ID: 19777
Int'l Code: 1988-095F
Perigee: 36,394.8 km
Apogee: 36,526.0 km
Inclination: 13.1 °
Period: 1,470.3 minutes
Semi major axis: 42831 km
RCS: 2.6743 m2 (large)
Launch date: October 20, 1988
Source: Commonwealth of Independent States (former USSR) (CIS)
Launch site: TYURATAM MISSILE AND SPACE COMPLEX (TTMTR)

Note: This is a ROCKET BODY
Your satellite tracking list
Your tracking list is empty




NASA's NSSDC Master Catalog

Two Line Element Set (TLE):
1 19777U 88095F   25186.23958372 -.00000196  00000-0  00000-0 0  9999
2 19777  13.1076 336.0053 0015314 251.2498 303.0023  0.97939865118890
Source of the keplerian elements: AFSPC